When you browse on this site, cookies collect data to enhance your experience and personalize the content and advertising you see.
Visit our Privacy Policy to learn more. By continuing to use the site, you agree to this use of cookies and data.
  • en Suisse
  • Liste des pays
  • À 7 jours
  • Température de l'eau
  • Carte satellitaire
  • Carte météo
  • Widgets météo
  • user-avatar
    Se connecter

    Météo par heure à Plastunivka

    Ce jour, 19 Avril, Vendredi

    Heure Température Précipitation Vent Pression Humidité
    00:00 +6°C° 0 mm 2 m/s 752 mmHg 52%
    01:00 +5°C° 0 mm 2 m/s 752 mmHg 54%
    02:00 +5°C° 0 mm 1 m/s 752 mmHg 56%
    03:00 +5°C° 0 mm 1 m/s 752 mmHg 57%
    04:00 +4°C° 0 mm 2 m/s 752 mmHg 58%
    05:00 +4°C° 0 mm 2 m/s 752 mmHg 58%
    06:00 +4°C° 0 mm 3 m/s 752 mmHg 53%
    07:00 +5°C° 0 mm 3 m/s 753 mmHg 48%
    08:00 +7°C° 0 mm 4 m/s 753 mmHg 43%
    09:00 +8°C° 0 mm 4 m/s 753 mmHg 40%
    10:00 +10°C° 0 mm 4 m/s 753 mmHg 38%
    11:00 +9°C° 0 mm 5 m/s 753 mmHg 36%
    12:00 +10°C° 0 mm 5 m/s 753 mmHg 35%
    13:00 +10°C° 0 mm 5 m/s 753 mmHg 35%
    14:00 +10°C° 0 mm 5 m/s 753 mmHg 34%
    15:00 +11°C° 0 mm 4 m/s 753 mmHg 35%
    16:00 +11°C° 0 mm 4 m/s 753 mmHg 36%
    17:00 +10°C° 0 mm 4 m/s 753 mmHg 37%
    18:00 +9°C° 0 mm 3 m/s 753 mmHg 41%
    19:00 +8°C° 0 mm 3 m/s 753 mmHg 45%
    20:00 +7°C° 0 mm 2 m/s 754 mmHg 48%
    21:00 +7°C° 0 mm 2 m/s 754 mmHg 50%
    22:00 +6°C° 0 mm 2 m/s 754 mmHg 52%
    23:00 +6°C° 0 mm 2 m/s 754 mmHg 54%

    Demain, 20 Avril, Samedi

    Heure Température Précipitation Vent Pression Humidité
    00:00 +6°C° 0 mm 1 m/s 754 mmHg 55%
    01:00 +6°C° 0 mm 1 m/s 754 mmHg 56%
    02:00 +6°C° 0 mm 1 m/s 754 mmHg 57%
    03:00 +5°C° 0 mm 1 m/s 754 mmHg 57%
    04:00 +5°C° 0 mm 1 m/s 754 mmHg 58%
    05:00 +5°C° 0 mm 1 m/s 754 mmHg 58%
    06:00 +6°C° 0 mm 1 m/s 754 mmHg 53%
    07:00 +8°C° 0 mm 1 m/s 754 mmHg 47%
    08:00 +9°C° 0 mm 2 m/s 754 mmHg 42%
    09:00 +10°C° 0 mm 2 m/s 754 mmHg 39%
    10:00 +10°C° 0 mm 2 m/s 754 mmHg 35%
    11:00 +12°C° 0 mm 2 m/s 754 mmHg 32%
    12:00 +13°C° 0 mm 2 m/s 753 mmHg 32%
    13:00 +13°C° 0 mm 2 m/s 753 mmHg 32%
    14:00 +13°C° 0 mm 2 m/s 753 mmHg 32%
    15:00 +13°C° 0 mm 2 m/s 753 mmHg 34%
    16:00 +13°C° 0 mm 2 m/s 753 mmHg 35%
    17:00 +13°C° 0 mm 2 m/s 752 mmHg 36%
    18:00 +12°C° 0 mm 2 m/s 753 mmHg 39%
    19:00 +10°C° 0 mm 2 m/s 753 mmHg 41%
    20:00 +10°C° 0 mm 2 m/s 753 mmHg 43%
    21:00 +9°C° 0 mm 2 m/s 753 mmHg 45%
    22:00 +9°C° 0 mm 2 m/s 753 mmHg 47%
    23:00 +9°C° 0 mm 2 m/s 753 mmHg 49%

    Après-demain, 21 Avril, Dimanche

    Heure Température Précipitation Vent Pression Humidité
    00:00 +8°C° 0 mm 2 m/s 753 mmHg 50%
    01:00 +8°C° 0 mm 2 m/s 753 mmHg 52%
    02:00 +7°C° 0 mm 2 m/s 753 mmHg 54%
    03:00 +7°C° 0 mm 2 m/s 753 mmHg 55%
    04:00 +7°C° 0 mm 2 m/s 753 mmHg 55%
    05:00 +7°C° 0 mm 2 m/s 753 mmHg 56%
    06:00 +8°C° 0 mm 2 m/s 753 mmHg 53%
    07:00 +9°C° 0 mm 2 m/s 753 mmHg 49%
    08:00 +12°C° 0 mm 2 m/s 753 mmHg 46%
    09:00 +11°C° 0 mm 3 m/s 753 mmHg 43%
    10:00 +12°C° 0 mm 3 m/s 753 mmHg 39%
    11:00 +12°C° 0 mm 3 m/s 753 mmHg 36%
    12:00 +12°C° 0 mm 3 m/s 753 mmHg 36%
    13:00 +12°C° 0 mm 3 m/s 753 mmHg 36%
    14:00 +13°C° 0 mm 3 m/s 753 mmHg 36%
    15:00 +12°C° 0 mm 3 m/s 753 mmHg 38%
    16:00 +12°C° 0 mm 3 m/s 753 mmHg 39%
    17:00 +12°C° 0 mm 3 m/s 753 mmHg 41%
    18:00 +11°C° 0 mm 3 m/s 753 mmHg 44%
    19:00 +10°C° 0 mm 2 m/s 754 mmHg 48%
    20:00 +9°C° 0 mm 2 m/s 754 mmHg 51%
    21:00 +8°C° 0 mm 2 m/s 754 mmHg 53%
    22:00 +8°C° 0 mm 2 m/s 754 mmHg 55%
    23:00 +7°C° 0 mm 2 m/s 754 mmHg 57%

    22 Avril, Lundi

    Heure Température Précipitation Vent Pression Humidité
    00:00 +7°C° 0 mm 2 m/s 754 mmHg 59%
    01:00 +7°C° 0 mm 2 m/s 754 mmHg 60%
    02:00 +6°C° 0 mm 2 m/s 754 mmHg 61%
    03:00 +6°C° 0 mm 2 m/s 755 mmHg 62%
    04:00 +6°C° 0 mm 2 m/s 755 mmHg 63%
    05:00 +5°C° 0 mm 2 m/s 755 mmHg 64%
    06:00 +7°C° 0 mm 2 m/s 755 mmHg 60%
    07:00 +9°C° 0 mm 3 m/s 756 mmHg 55%
    08:00 +11°C° 0 mm 3 m/s 756 mmHg 51%
    09:00 +11°C° 0 mm 3 m/s 756 mmHg 46%
    10:00 +12°C° 0 mm 3 m/s 756 mmHg 42%
    11:00 +13°C° 0 mm 3 m/s 756 mmHg 38%
    12:00 +13°C° 0 mm 3 m/s 756 mmHg 38%
    13:00 +13°C° 0 mm 3 m/s 756 mmHg 38%
    14:00 +14°C° 0 mm 2 m/s 755 mmHg 39%
    15:00 +14°C° 0 mm 2 m/s 755 mmHg 42%
    16:00 +13°C° 0 mm 2 m/s 755 mmHg 45%
    17:00 +13°C° 0 mm 2 m/s 755 mmHg 48%
    18:00 +12°C° 0 mm 1 m/s 755 mmHg 50%
    19:00 +11°C° 0 mm 1 m/s 756 mmHg 52%
    20:00 +10°C° 0 mm 1 m/s 756 mmHg 53%
    21:00 +10°C° 0 mm 1 m/s 756 mmHg 55%
    22:00 +9°C° 0 mm 1 m/s 756 mmHg 56%
    23:00 +9°C° 0 mm 1 m/s 756 mmHg 58%

    23 Avril, Mardi

    Heure Température Précipitation Vent Pression Humidité
    00:00 +9°C° 0 mm 1 m/s 757 mmHg 58%
    01:00 +9°C° 0 mm 1 m/s 757 mmHg 58%
    02:00 +9°C° 0 mm 1 m/s 757 mmHg 58%
    03:00 +9°C° 0 mm 1 m/s 757 mmHg 60%
    04:00 +9°C° 0 mm 1 m/s 757 mmHg 61%
    05:00 +8°C° 0 mm 1 m/s 757 mmHg 63%
    06:00 +10°C° 0 mm 1 m/s 757 mmHg 58%
    07:00 +10°C° 0 mm 2 m/s 757 mmHg 54%
    08:00 +13°C° 0 mm 2 m/s 758 mmHg 50%
    09:00 +13°C° 0 mm 2 m/s 758 mmHg 46%
    10:00 +14°C° 0 mm 1 m/s 758 mmHg 41%
    11:00 +15°C° 0 mm 1 m/s 758 mmHg 37%
    12:00 +15°C° 0 mm 1 m/s 757 mmHg 37%
    13:00 +15°C° 0 mm 1 m/s 757 mmHg 37%
    14:00 +15°C° 0 mm 1 m/s 757 mmHg 37%
    15:00 +15°C° 0 mm 1 m/s 757 mmHg 40%
    16:00 +14°C° 0 mm 1 m/s 757 mmHg 43%
    17:00 +14°C° 0 mm 1 m/s 757 mmHg 47%
    18:00 +13°C° 0 mm 1 m/s 757 mmHg 48%
    19:00 +12°C° 0 mm 1 m/s 757 mmHg 49%
    20:00 +11°C° 0 mm 1 m/s 757 mmHg 51%
    21:00 +11°C° 0 mm 1 m/s 757 mmHg 51%
    22:00 +11°C° 0 mm 1 m/s 758 mmHg 52%
    23:00 +10°C° 0 mm 0 m/s 758 mmHg 52%

    24 Avril, Mercredi

    Heure Température Précipitation Vent Pression Humidité
    00:00 +10°C° 0 mm 1 m/s 758 mmHg 54%
    01:00 +10°C° 0 mm 1 m/s 758 mmHg 56%
    02:00 +9°C° 0 mm 1 m/s 758 mmHg 58%
    03:00 +9°C° 0 mm 1 m/s 758 mmHg 60%
    04:00 +7°C° 0 mm 2 m/s 758 mmHg 62%
    05:00 +7°C° 0 mm 2 m/s 758 mmHg 64%
    06:00 +9°C° 0 mm 2 m/s 758 mmHg 60%
    07:00 +12°C° 0 mm 2 m/s 758 mmHg 55%
    08:00 +14°C° 0 mm 2 m/s 758 mmHg 50%
    09:00 +15°C° 0 mm 2 m/s 758 mmHg 48%
    10:00 +16°C° 0 mm 2 m/s 758 mmHg 45%
    11:00 +17°C° 0 mm 2 m/s 758 mmHg 43%
    12:00 +18°C° 0 mm 2 m/s 757 mmHg 42%
    13:00 +18°C° 0 mm 2 m/s 757 mmHg 42%
    14:00 +19°C° 0 mm 2 m/s 757 mmHg 41%
    15:00 +19°C° 0 mm 2 m/s 757 mmHg 43%
    16:00 +19°C° 0 mm 2 m/s 757 mmHg 45%
    17:00 +19°C° 0 mm 2 m/s 756 mmHg 47%
    18:00 +17°C° 0 mm 2 m/s 756 mmHg 52%
    19:00 +16°C° 0 mm 2 m/s 756 mmHg 56%
    20:00 +15°C° 0 mm 1 m/s 756 mmHg 60%
    21:00 +14°C° 0 mm 2 m/s 757 mmHg 62%
    22:00 +14°C° 0 mm 2 m/s 757 mmHg 65%
    23:00 +13°C° 0 mm 2 m/s 757 mmHg 67%
    Voir plus